Regional Weather Roundup
Issued by NWS Charleston, SC

Current Version | Previous Version | Graphics & Text | Print | Product List | Glossary On
Versions: 1 2 3 4 5 6 7 8 9 10 11 12 13 14 15 16 17 18 19 20 21 22 23 24 25 26 27 28 29 30 31 32 33 34 35 36 37 38 39 40 41 42 43 44 45 46 47 48 49 50
000 ASUS42 KCHS 280627 RWRCHS REGIONAL WEATHER ROUNDUP NATIONAL WEATHER SERVICE CHARLESTON SC 200 AM EDT TUE MAR 28 2017 NOTE: "FAIR" INDICATES FEW OR NO CLOUDS BELOW 12,000 FEET WITH NO SIGNIFICANT WEATHER AND/OR OBSTRUCTIONS TO VISIBILITY. NOT ALL STATIONS ARE QUALITY CONTROLLED. USE DATA WITH CAUTION... ESPECIALLY DEWPOINT OBSERVATIONS. SCZ027-030-031-034>040-042>050-280700- ...SOUTHEAST SOUTH CAROLINA... CITY SKY/WX TMP DP RH WIND PRES REMARKS N CHARLESTON PTCLDY 63 58 83 S6 30.02S 6HR MIN TEMP: 62; 6HR MAX TEMP: 68; WATERFRONT PRK N/A 66 62 87 S6 30.01F JOHNS ISLAND MOCLDY 66 63 88 S6 30.02S PINOPOLIS N/A 64 61 88 VRB2 29.93F MONCKS CORNER FAIR 59 57 94 CALM 30.01F SUMMERVILLE FAIR 61 59 94 CALM 30.02F BEAUFORT MCAS MOCLDY 66 63 90 S5 30.01F 6HR MIN TEMP: 66; 6HR MAX TEMP: 69; BEAUFORT ARPT CLOUDY 64 61 88 S7 30.01F HILTON HEAD IS PTCLDY 66 61 82 S10 30.03F WALTERBORO MOCLDY 61 59 94 CALM 30.02F ALLENDALE CLOUDY 64 59 82 CALM 30.00S ...SOUTHERN MIDLANDS AND PEE DEE... CITY SKY/WX TMP DP RH WIND PRES REMARKS GEORGETOWN CLOUDY 63 61 94 S5 30.02F KINGSTREE FAIR 63 55 77 CALM 30.01S ORANGEBURG CLOUDY 63 58 83 S9 30.00F 6HR MIN TEMP: 63; 6HR MAX TEMP: 73; BARNWELL FAIR 66 59 77 CALM 30.01S AIKEN FAIR 63 55 77 S6 30.03S MANNING FAIR 63 57 82 S6 30.01S COLUMBIA CLOUDY 67 57 70 S10 29.97F 6HR MIN TEMP: 67; 6HR MAX TEMP: 74; SUMTER MOCLDY 64 57 76 S9 29.97F 6HR MIN TEMP: 63; 6HR MAX TEMP: 74; FLORENCE CLEAR 62 58 86 S6 30.00F 6HR MIN TEMP: 62; 6HR MAX TEMP: 72; MYRTLE BEACH CLOUDY 65 61 87 SW9 30.02F N MYRTLE BEACH MOCLDY 65 61 87 S10 30.00F 6HR MIN TEMP: 64; 6HR MAX TEMP: 69; $$ GAZ063-065-086>088-099>101-113>116-118-119-134>141-150-280700- ...SOUTHEAST GEORGIA... CITY SKY/WX TMP DP RH WIND PRES REMARKS SAVANNAH ARPT MOCLDY 66 59 78 S8 30.03S 6HR MIN TEMP: 64; 6HR MAX TEMP: 70; HUNTER AAF MOCLDY 66 64 90 S6 30.00F 6HR MIN TEMP: 66; 6HR MAX TEMP: 68; FORT STEWART CLOUDY 65 59 82 CALM 30.01F 6HR MIN TEMP: 63; 6HR MAX TEMP: 71; STATESBORO CLEAR 67 61 81 S8 30.01F SYLVANIA CLOUDY N/A N/A N/A SW3 30.02F CLAXTON FAIR N/A N/A N/A SE6 30.02F ...CSRA...CENTRAL AND FAR SOUTHEAST GEORGIA... CITY SKY/WX TMP DP RH WIND PRES REMARKS THOMSON MOCLDY 67 60 76 W6 30.02F AUGUSTA-BUSH PTCLDY 69 58 67 S8 29.98S 6HR MIN TEMP: 69; 6HR MAX TEMP: 77; AUGUSTA-DANIEL PTCLDY 69 56 62 S8 30.00R SWAINSBORO FAIR 68 55 64 S6 30.01F VIDALIA CLEAR 68 59 73 S7 30.01F EASTMAN MOCLDY 67 52 57 CALM 30.03R HAZLEHURST FAIR 68 60 76 S6 30.00F ALMA PTCLDY 67 59 75 S7 30.02F 6HR MIN TEMP: 67; 6HR MAX TEMP: 76; WAYCROSS MOCLDY 70 62 74 S8 30.03F JESUP CLOUDY 66 59 77 SW3 30.04F BAXLEY FAIR 68 63 83 S5 30.02S BRUNSWICK CLOUDY 68 64 88 SW6 30.04F SAINT SIMONS CLOUDY 68 63 84 SW7 30.04S 6HR MIN TEMP: 67; 6HR MAX TEMP: 69; $$ SCZ027-028-034-036>038-045-046-048>050-GAZ119-141-280700- ...LAKE AND SUPPLEMENTAL COASTAL OBSERVATIONS... STATION/POSITION TIME TEMP WIND PRES WAVE SWELL AIR SEA DIR/SP/G HT/PER HT/PER/DIR (UTC) (F) (DEG/KT/KT) (MB) (FT/S) (FT/S/D) WINYAH BAY 0530 63 170/ 3 1016.0F LAKE MURRAY 0520 66 190/ 10/ 12 1014.6 ACE BASIN NERRS 0530 65 CALM 1017.0S FORT PULASKI 0600 67 64 200/ 6/ 10 1016.8 SAPELO ISLAND 0600 67 210/ 6 1017.0 $$ ANZ835-935-AMZ111-154-330-350-352-354-370-450-454-472-280700- ...C-MAN AND BUOY OBSERVATIONS... STATION/POSITION TIME TEMP WIND PRES WAVE SWELL AIR SEA DIR/SP/G HT/PER HT/PER/DIR (UTC) (F) (DEG/KT/KT) (MB) (FT/S) (FT/S/D) BUOY 41004 0550 72 70 180/ 12/ 14 1016.8F 5/ 9 3/130/ 9 BUOY 41008 0550 65 63 190/ 6/ 8 1017.1R 3/10 3/100/10 FOLLY BEACH CMAN 0600 66 190/ 7/ 8 1017.2F CAPERS NEARSHORE 0508 64 190/ 6/ 8 1017.0F FRIPP NEARSHORE 0608 64 63 190/ 8/ 10 1016.4F STATION/POSITION TIME TEMP WIND PRES WAVE SWELL AIR SEA DIR/SP/G HT/PER HT/PER/DIR (UTC) (F) (DEG/KT/KT) (MB) (FT/S) (FT/S/D) 5E ST. MARYS GA 0600 66 N/A 3/11 2/120/11 FRYING PAN BUOY 0610 72 74 190/ 12/ 16 1016.8 BUOY 41025 0550 71 74 190/ 17/ 21 1016.2F 5/10 3/130/10 CAPE LOOKOUT NC 0600 66 200/ 7/ 9 1016.1F BUOY 41002 0550 68 72 100/ 6/ 8 1018.0F 5/10 5/100/10 BUOY 41010 NOT AVBL ST AUGUSTINE FL 0600 69 70 160/ 9/ 10 1017.9F $$

USA.gov is the U.S. government's official web portal to all federal, state and local government web resources and services.